Stündliche Wetter Abohar

Heute, 23 Juni, Mittwoch

Zeit Temperatur Niederschläge Wind Luftdruck Luftfeuchtigkeit
00:00 +39°C° 0 mm 2 m/S 734 mmHg 26%
01:00 +38°C° 0 mm 2 m/S 734 mmHg 27%
02:00 +38°C° 0 mm 2 m/S 733 mmHg 28%
03:00 +37°C° 0 mm 2 m/S 733 mmHg 30%
04:00 +37°C° 0 mm 2 m/S 733 mmHg 32%
05:00 +36°C° 0 mm 3 m/S 734 mmHg 36%
06:00 +38°C° 0 mm 3 m/S 734 mmHg 33%
07:00 +40°C° 0 mm 4 m/S 735 mmHg 30%
08:00 +42°C° 0 mm 5 m/S 735 mmHg 27%
09:00 +43°C° 0 mm 4 m/S 735 mmHg 23%
10:00 +45°C° 0 mm 4 m/S 735 mmHg 20%
11:00 +46°C° 0 mm 3 m/S 735 mmHg 16%
12:00 +47°C° 0 mm 3 m/S 734 mmHg 15%
13:00 +47°C° 0 mm 3 m/S 734 mmHg 13%
14:00 +48°C° 0 mm 3 m/S 733 mmHg 12%
15:00 +48°C° 0 mm 3 m/S 733 mmHg 12%
16:00 +49°C° 0 mm 4 m/S 732 mmHg 12%
17:00 +49°C° 0 mm 4 m/S 732 mmHg 12%
18:00 +47°C° 0 mm 4 m/S 732 mmHg 15%
19:00 +44°C° 0 mm 4 m/S 732 mmHg 18%
20:00 +42°C° 0 mm 4 m/S 733 mmHg 21%
21:00 +42°C° 0 mm 3 m/S 733 mmHg 21%
22:00 +42°C° 0 mm 3 m/S 733 mmHg 20%
23:00 +40°C° 0 mm 2 m/S 733 mmHg 19%

Morgen, 24 Juni, Donnerstag

Zeit Temperatur Niederschläge Wind Luftdruck Luftfeuchtigkeit
00:00 +40°C° 0.1 mm 2 m/S 733 mmHg 20%
01:00 +39°C° 0.1 mm 3 m/S 733 mmHg 21%
02:00 +39°C° 0.1 mm 3 m/S 733 mmHg 22%
03:00 +40°C° 0 mm 4 m/S 733 mmHg 24%
04:00 +40°C° 0 mm 4 m/S 733 mmHg 25%
05:00 +40°C° 0 mm 5 m/S 733 mmHg 26%
06:00 +41°C° 0 mm 5 m/S 733 mmHg 25%
07:00 +42°C° 0 mm 5 m/S 734 mmHg 25%
08:00 +43°C° 0 mm 5 m/S 734 mmHg 24%
09:00 +45°C° 0 mm 5 m/S 734 mmHg 22%
10:00 +46°C° 0 mm 5 m/S 734 mmHg 21%
11:00 +47°C° 0 mm 5 m/S 734 mmHg 19%
12:00 +48°C° 0 mm 5 m/S 733 mmHg 18%
13:00 +49°C° 0 mm 6 m/S 733 mmHg 16%
14:00 +51°C° 0 mm 6 m/S 732 mmHg 14%
15:00 +49°C° 0 mm 6 m/S 732 mmHg 15%
16:00 +48°C° 0 mm 6 m/S 731 mmHg 16%
17:00 +47°C° 0 mm 7 m/S 731 mmHg 16%
18:00 +45°C° 0.1 mm 7 m/S 732 mmHg 19%
19:00 +43°C° 0.1 mm 8 m/S 732 mmHg 22%
20:00 +40°C° 0.1 mm 8 m/S 733 mmHg 24%
21:00 +40°C° 0.1 mm 6 m/S 733 mmHg 23%
22:00 +41°C° 0.1 mm 4 m/S 732 mmHg 21%
23:00 +41°C° 0.1 mm 2 m/S 732 mmHg 19%

übermorgen, 25 Juni, Freitag

Zeit Temperatur Niederschläge Wind Luftdruck Luftfeuchtigkeit
00:00 +40°C° 0 mm 3 m/S 732 mmHg 21%
01:00 +40°C° 0 mm 4 m/S 732 mmHg 23%
02:00 +38°C° 0 mm 4 m/S 732 mmHg 26%
03:00 +38°C° 0 mm 4 m/S 732 mmHg 28%
04:00 +39°C° 0 mm 5 m/S 732 mmHg 31%
05:00 +37°C° 0 mm 5 m/S 732 mmHg 33%
06:00 +39°C° 0 mm 6 m/S 733 mmHg 33%
07:00 +40°C° 0 mm 6 m/S 733 mmHg 34%
08:00 +40°C° 0 mm 7 m/S 733 mmHg 34%
09:00 +41°C° 0 mm 6 m/S 733 mmHg 30%
10:00 +43°C° 0 mm 5 m/S 733 mmHg 27%
11:00 +44°C° 0 mm 4 m/S 733 mmHg 23%
12:00 +45°C° 0 mm 4 m/S 733 mmHg 22%
13:00 +47°C° 0 mm 5 m/S 732 mmHg 20%
14:00 +48°C° 0 mm 5 m/S 732 mmHg 19%
15:00 +48°C° 0 mm 5 m/S 731 mmHg 18%
16:00 +48°C° 0 mm 5 m/S 731 mmHg 18%
17:00 +48°C° 0 mm 6 m/S 730 mmHg 17%
18:00 +47°C° 0 mm 5 m/S 730 mmHg 18%
19:00 +46°C° 0 mm 5 m/S 731 mmHg 19%
20:00 +45°C° 0 mm 5 m/S 731 mmHg 20%
21:00 +43°C° 0 mm 5 m/S 731 mmHg 21%
22:00 +42°C° 0 mm 5 m/S 731 mmHg 23%
23:00 +41°C° 0 mm 4 m/S 732 mmHg 24%

26 Juni, Samstag

Zeit Temperatur Niederschläge Wind Luftdruck Luftfeuchtigkeit
00:00 +41°C° 0 mm 4 m/S 732 mmHg 26%
01:00 +40°C° 0 mm 4 m/S 732 mmHg 28%
02:00 +38°C° 0 mm 4 m/S 732 mmHg 29%
03:00 +38°C° 0 mm 4 m/S 732 mmHg 33%
04:00 +37°C° 0 mm 4 m/S 733 mmHg 37%
05:00 +36°C° 0 mm 4 m/S 733 mmHg 40%
06:00 +37°C° 0 mm 5 m/S 733 mmHg 40%
07:00 +37°C° 0 mm 5 m/S 734 mmHg 40%
08:00 +39°C° 0 mm 5 m/S 734 mmHg 39%
09:00 +41°C° 0 mm 5 m/S 734 mmHg 35%
10:00 +42°C° 0 mm 4 m/S 734 mmHg 31%
11:00 +44°C° 0 mm 4 m/S 734 mmHg 27%
12:00 +45°C° 0 mm 4 m/S 734 mmHg 24%
13:00 +47°C° 0 mm 4 m/S 733 mmHg 21%
14:00 +47°C° 0 mm 3 m/S 733 mmHg 19%
15:00 +48°C° 0 mm 4 m/S 732 mmHg 18%
16:00 +48°C° 0 mm 4 m/S 732 mmHg 17%
17:00 +48°C° 0 mm 4 m/S 732 mmHg 17%
18:00 +47°C° 0 mm 4 m/S 732 mmHg 18%
19:00 +44°C° 0 mm 3 m/S 732 mmHg 20%
20:00 +43°C° 0 mm 3 m/S 733 mmHg 21%
21:00 +42°C° 0 mm 3 m/S 733 mmHg 24%
22:00 +40°C° 0 mm 3 m/S 733 mmHg 26%
23:00 +39°C° 0 mm 3 m/S 734 mmHg 29%

27 Juni, Sonntag

Zeit Temperatur Niederschläge Wind Luftdruck Luftfeuchtigkeit
00:00 +39°C° 0 mm 2 m/S 734 mmHg 29%
01:00 +38°C° 0 mm 2 m/S 734 mmHg 29%
02:00 +37°C° 0 mm 1 m/S 733 mmHg 30%
03:00 +38°C° 0 mm 2 m/S 734 mmHg 30%
04:00 +37°C° 0 mm 3 m/S 734 mmHg 31%
05:00 +37°C° 0 mm 4 m/S 735 mmHg 32%
06:00 +39°C° 0 mm 5 m/S 735 mmHg 32%
07:00 +40°C° 0 mm 5 m/S 736 mmHg 32%
08:00 +41°C° 0 mm 5 m/S 736 mmHg 33%
09:00 +42°C° 0 mm 5 m/S 736 mmHg 30%
10:00 +44°C° 0 mm 4 m/S 736 mmHg 26%
11:00 +45°C° 0 mm 4 m/S 736 mmHg 23%
12:00 +47°C° 0 mm 4 m/S 735 mmHg 21%
13:00 +48°C° 0 mm 4 m/S 735 mmHg 19%
14:00 +49°C° 0 mm 4 m/S 734 mmHg 17%
15:00 +49°C° 0 mm 4 m/S 734 mmHg 18%
16:00 +48°C° 0 mm 4 m/S 734 mmHg 18%
17:00 +48°C° 0 mm 4 m/S 733 mmHg 18%
18:00 +47°C° 0 mm 4 m/S 733 mmHg 20%
19:00 +44°C° 0 mm 3 m/S 734 mmHg 22%
20:00 +42°C° 0 mm 2 m/S 734 mmHg 24%
21:00 +43°C° 0 mm 3 m/S 734 mmHg 24%
22:00 +42°C° 0 mm 3 m/S 734 mmHg 25%
23:00 +42°C° 0 mm 4 m/S 734 mmHg 25%

28 Juni, Montag

Zeit Temperatur Niederschläge Wind Luftdruck Luftfeuchtigkeit
00:00 +42°C° 0 mm 4 m/S 734 mmHg 26%
01:00 +42°C° 0 mm 5 m/S 734 mmHg 27%
02:00 +42°C° 0 mm 5 m/S 734 mmHg 27%
03:00 +41°C° 0 mm 6 m/S 734 mmHg 28%
04:00 +41°C° 0 mm 6 m/S 734 mmHg 29%
05:00 +40°C° 0 mm 6 m/S 733 mmHg 30%
06:00 +40°C° 0 mm 6 m/S 734 mmHg 30%
07:00 +41°C° 0 mm 6 m/S 734 mmHg 29%
08:00 +41°C° 0 mm 6 m/S 735 mmHg 28%
09:00 +42°C° 0 mm 5 m/S 735 mmHg 25%
10:00 +45°C° 0 mm 5 m/S 735 mmHg 23%
11:00 +46°C° 0 mm 5 m/S 734 mmHg 21%
12:00 +47°C° 0 mm 5 m/S 734 mmHg 19%
13:00 +49°C° 0 mm 4 m/S 733 mmHg 17%
14:00 +50°C° 0 mm 4 m/S 732 mmHg 15%
15:00 +50°C° 0 mm 4 m/S 732 mmHg 14%
16:00 +50°C° 0 mm 4 m/S 732 mmHg 14%
17:00 +50°C° 0 mm 4 m/S 731 mmHg 14%
18:00 +49°C° 0 mm 5 m/S 731 mmHg 15%
19:00 +47°C° 0 mm 5 m/S 731 mmHg 16%
20:00 +46°C° 0 mm 5 m/S 732 mmHg 17%
21:00 +45°C° 0 mm 5 m/S 732 mmHg 19%
22:00 +45°C° 0 mm 6 m/S 732 mmHg 21%
23:00 +44°C° 0 mm 6 m/S 732 mmHg 23%
Mehr zeigen

Wir brauchen deine Erlaubnis

Meteoprog und unser Service Anbieter werden persönliche Daten aufbewahren, so wie Cookies, Geräte Bezeichnung oder ähnliche Technologien von deinem Gerät und Prozess, so wie Persönliche Daten Inhalte und Werbungen, genauso wie social Media und den Verkehr zu analysieren.

  • Aufbewahrung und/oder Zugang zu deiner Geräte Informationen.

    Cookies, Geräte Bezeichnung oder andere Informationen, können aufbewahrt oder Zugang zu deinem Gerät erhalten, für den Grund, der oben angegeben wird.

  • Personalisierte Werbung und Inhalte, Messungen, Einblick in das Publikum und Produkt Entwicklung.

    Werbungen und Inhalte können personalisiert werden, basierend auf ein Profil. Mehr Daten können besser personalisierte Werbungen und Inhalte hinzufügen. Werbung und Inhalte können gezeigt und gemessen werden. Einblicke über das Publikum, welche die Werbung gesehen haben und den Inhalt, können abgeleitet werden. So wie Daten können genutzt werden, um es zu verbessern oder die Benutzer Erfahrung zu verbessern das System und die Software.

Wenn du “Ich stimme zu” klickst, erlaubst du uns, die Cookies zu benutzen die Geräte Bezeichnung, den Web oder ähnliche Technologien zu benutzen. Deine Settings, können in deinem Gerät bei deinem Browser geändert werden.

Für den bestimmten Zweck, berechtigten Interessen beruhen darauf, mehr als auf den Inhalt. Du kannst mehr darüber in unseren Privaten und Cookie Politik lesen.